Location: Flotzheim
(48.8375°N, 10.8136°E)
Time: 03:56:13
(UTC+00:00)

Cosmos 1553 Rocket - Pass Details

Date: 23 January 2021
Orbit: 941 x 1008 km, 82.9° (Epoch: 26 February)

Event Time Altitude Azimuth Distance (km) Brightness Sun altitude
Rises 18:57:51 0° 348° (NNW) 3,751 7.2 -28.9°
Reaches altitude 10° 19:00:25 10° 345° (NNW) 2,795 6.6 -29.4°
Maximum altitude 19:06:44 62° 267° (W) 1,120 4.4 -30.4°
Drops below altitude 10° 19:12:58 10° 188° (S) 2,749 6.4 -31.4°
Sets 19:15:29 0° 185° (S) 3,685 7.0 -31.8°
